Weather reports worldwide

Advertisment
Manschnow, Germany (10396): temperature & dewpoint: 29.05.2020 20:00:00 - 04.06.2020 20:00:00 (CEST)Manschnow, Germany (10396): temperature 5cm & temperature -5cm: 29.05.2020 20:00:00 - 04.06.2020 20:00:00 (CEST)Manschnow, Germany (10396): temperature -20cm & temperature -100cm: 29.05.2020 20:00:00 - 04.06.2020 20:00:00 (CEST)Manschnow, Germany (10396): wind speed & gusts: 29.05.2020 20:00:00 - 04.06.2020 20:00:00 (CEST)Manschnow, Germany (10396): wind direction: 29.05.2020 20:00:00 - 04.06.2020 20:00:00 (CEST)Manschnow, Germany (10396): reduced air pressure: 29.05.2020 20:00:00 - 04.06.2020 20:00:00 (CEST)Manschnow, Germany (10396): visibility: 29.05.2020 20:00:00 - 04.06.2020 20:00:00 (CEST)Manschnow, Germany (10396): sunshine duration: 29.05.2020 20:00:00 - 04.06.2020 20:00:00 (CEST)Manschnow, Germany (10396): precipitation: 29.05.2020 20:00:00 - 04.06.2020 20:00:00 (CEST)
Date & Time tt [°C] td [°C] tt 5cm [°C] tt -5cm [°C] tt -20cm [°C] tt -100cm [°C] ff [km/h] ff [kn] fx [km/h] fx [kn] dd ppp [hPa] vv [km] sd [min] rr [mm]
04.06.2020 20:00:00 19,4 12,3 17,9 23,7 23,6 15,6 13 7 34 18 SSE 993,3 41 0 0,0
04.06.2020 19:00:00 21,8 9,6 21,3 26,0 23,7 15,6 22 12 43 23 S 993,3 55 0 0,0
04.06.2020 18:00:00 23,7 6,1 24,5 27,6 23,6 15,6 21 11 37 20 SE 993,2 73 9 0,0
04.06.2020 17:00:00 24,3 5,8 25,7 28,5 23,5 15,6 21 11 40 22 SSE 993,7 54 9 0,0
04.06.2020 16:00:00 24,7 5,1 28,1 29,9 23,2 15,5 23 12 38 20 SE 994,5 68 26 0,0
04.06.2020 15:00:00 24,8 3,9 29,1 31,5 22,8 15,5 25 13 39 21 E 995,1 68 38 0,0
04.06.2020 14:00:00 23,4 3,5 26,0 29,6 22,3 15,5 22 12 37 20 SE 995,9 53 20 0,0
04.06.2020 13:00:00 23,3 3,4 26,7 30,8 21,6 15,5 21 11 37 20 SE 996,3 73 51 0,0
04.06.2020 12:00:00 23,8 3,4 27,2 29,9 21,0 15,5 23 12 38 20 ESE 996,7 59 60 0,0
04.06.2020 11:00:00 23,1 3,9 27,3 28,0 20,4 15,5 22 12 34 19 ESE 997,2 46 60 0,0
04.06.2020 10:00:00 21,9 4,5 25,1 25,4 20,0 15,5 22 12 35 19 SE 997,7 48 60 0,0
04.06.2020 09:00:00 17,9 7,9 21,7 22,3 19,8 15,4 10 6 17 9 E 998,1 53 60 0,0
04.06.2020 08:00:00 14,3 7,1 16,9 19,1 19,9 15,4 9 5 18 10 E 998,7 45 45 0,0
04.06.2020 07:00:00 11,3 6,0 11,5 17,5 20,1 15,4 9 5 16 8 E 999,1 44 49 0,0
04.06.2020 06:00:00 10,5 5,7 10,9 16,2 20,5 15,4 11 6 21 11 E 999,4 46 33 0,0
04.06.2020 05:00:00 10,0 5,4 9,2 16,2 21,0 15,4 11 6 18 10 E 999,9 49 0 0,0
04.06.2020 04:00:00 10,6 5,7 9,5 16,8 21,4 15,4 9 5 16 9 E 1000,3 48 0 0,0
04.06.2020 03:00:00 12,5 6,1 10,4 17,7 21,9 15,4 8 4 12 7 ENE 1000,6 55 0 0,0
04.06.2020 02:00:00 14,0 6,5 12,3 18,7 22,3 15,4 9 5 13 7 E 1001,1 64 0 0,0
04.06.2020 01:00:00 14,9 6,6 13,6 19,6 22,8 15,3 7 4 11 6 E 1001,5 61 0 0,0
04.06.2020 00:00:00 15,6 6,5 13,1 20,2 23,3 15,3 4 2 10 5 E 1002,0 62 0 0,0
03.06.2020 23:00:00 16,3 6,5 13,5 21,0 23,9 15,3 5 3 10 5 E 1002,5 63 0 0,0
03.06.2020 22:00:00 17,3 6,5 14,0 22,5 24,4 15,3 6 3 10 6 E 1002,9 54 0 0,0
03.06.2020 21:00:00 19,8 5,2 17,2 24,5 24,8 15,3 4 2 10 5 E 1002,9 62 0 0,0
03.06.2020 20:00:00 21,3 3,9 19,5 26,8 25,0 15,3 5 3 16 8 E 1002,8 49 36 0,0
03.06.2020 19:00:00 23,0 2,7 24,7 29,9 25,0 15,3 11 6 19 10 ESE 1003,0 75 60 0,0
03.06.2020 18:00:00 22,6 2,7 24,0 32,0 24,8 15,3 14 8 26 14 E 1003,1 50 60 0,0
03.06.2020 17:00:00 23,4 3,0 27,7 33,7 24,4 15,2 12 6 24 13 E 1003,7 75 60 0,0
03.06.2020 16:00:00 22,7 1,6 28,3 34,8 23,8 15,2 8 5 19 11 ENE 1004,6 73 60 0,0
03.06.2020 15:00:00 22,5 1,5 30,0 34,8 23,0 15,2 8 5 21 11 ENE 1005,4 71 60 0,0
03.06.2020 14:00:00 21,9 1,9 28,1 34,0 22,1 15,2 11 6 25 13 E 1006,1 75 60 0,0
03.06.2020 13:00:00 21,3 1,9 27,8 32,5 21,3 15,2 9 5 24 13 E 1006,9 75 60 0,0
03.06.2020 12:00:00 20,6 3,0 26,2 30,3 20,5 15,2 12 6 22 12 E 1007,5 75 60 0,0
03.06.2020 11:00:00 18,3 2,4 23,1 27,8 19,9 15,2 13 7 21 12 ENE 1008,1 59 60 0,0
03.06.2020 10:00:00 17,2 4,0 22,0 25,2 19,4 15,1 7 4 14 8 E 1008,4 71 60 0,0
03.06.2020 09:00:00 15,3 5,5 19,8 21,7 19,2 15,1 6 3 14 8 E 1008,9 48 60 0,0
03.06.2020 08:00:00 13,1 5,3 16,1 19,0 19,2 15,1 10 5 19 11 E 1009,1 65 60 0,0
03.06.2020 07:00:00 11,7 5,7 13,1 17,0 19,5 15,1 10 6 16 9 E 1008,9 65 60 0,0
03.06.2020 06:00:00 10,9 5,7 10,8 15,5 19,9 15,1 4 2 13 7 NE 1009,1 43 33 0,0
03.06.2020 05:00:00 9,2 7,0 6,7 15,6 20,4 15,1 5 3 7 4 NNW 1009,2 54 0 0,0
03.06.2020 04:00:00 11,2 7,2 8,9 16,5 20,8 15,1 5 3 13 7 NNE 1009,5 61 0 0,0
03.06.2020 03:00:00 12,4 7,9 10,7 17,3 21,3 15,1 7 4 13 7 NNE 1009,9 66 0 0,0
03.06.2020 02:00:00 13,7 8,4 11,7 18,1 21,8 15,0 6 3 15 8 N 1010,4 67 0 0,0
03.06.2020 01:00:00 14,7 9,2 12,7 18,9 22,3 15,0 8 5 13 7 N 1010,9 60 0 0,0
03.06.2020 00:00:00 14,7 9,2 11,5 19,9 22,8 15,0 4 2 9 5 NNW 1011,1 64 0 0,0
02.06.2020 23:00:00 14,8 9,1 12,7 21,1 23,3 15,0 5 3 9 5 WNW 1011,2 75 0 0,0
02.06.2020 22:00:00 18,4 9,1 15,8 22,7 23,8 15,0 5 3 31 17 NNW 1011,4 68 3 0,0
02.06.2020 21:00:00 21,4 8,9 20,2 24,6 24,1 15,0 16 9 34 18 N 1011,4 60 60 0,0
02.06.2020 20:00:00 23,7 8,1 24,2 26,9 24,3 15,0 10 6 35 19 N 1011,3 75 47 0,0
02.06.2020 19:00:00 25,2 7,9 27,3 29,3 24,3 15,0 16 8 41 22 N 1011,5 61 58 0,0
02.06.2020 18:00:00 25,9 7,1 29,0 30,1 24,1 14,9 20 11 42 23 NNW 1011,6 58 32 0,0
02.06.2020 17:00:00 26,6 7,0 29,9 32,5 23,7 14,9 19 11 44 24 NNW 1012,3 51 43 0,0
02.06.2020 16:00:00 26,7 6,9 30,1 34,0 23,1 14,9 19 10 43 23 NNW 1013,1 56 52 0,0
02.06.2020 15:00:00 26,7 8,7 32,3 32,6 22,4 14,9 19 10 40 22 NNW 1013,9 54 33 0,0
02.06.2020 14:00:00 25,8 8,0 32,2 32,9 21,6 14,9 9 5 25 13 NNW 1015,0 62 40 0,0
02.06.2020 13:00:00 24,1 7,3 29,7 32,1 20,7 14,9 10 5 22 12 W 1016,4 75 54 0,0
02.06.2020 12:00:00 23,9 8,2 29,3 28,4 20,0 14,9 10 5 25 14 NNW 1017,2 67 35 0,0
02.06.2020 11:00:00 22,0 8,0 28,2 28,1 19,2 14,8 9 5 16 9 NW 1018,1 51 60 0,0
02.06.2020 10:00:00 19,7 7,8 24,6 24,5 18,7 14,8 4 2 12 6 W 1019,0 40 51 0,0
02.06.2020 09:00:00 16,7 7,5 22,0 21,1 18,5 14,8 8 4 13 7 N 1019,8 56 49 0,0
02.06.2020 08:00:00 13,9 7,1 17,0 18,3 18,5 14,8 6 3 13 7 NNW 1020,1 51 43 0,0
02.06.2020 07:00:00 12,2 7,0 13,9 16,6 18,7 14,8 6 3 12 6 WNW 1020,4 56 60 0,0
02.06.2020 06:00:00 10,2 6,3 10,7 14,8 19,1 14,8 4 2 10 6 NW 1020,7 46 33 0,0
02.06.2020 05:00:00 7,8 5,1 6,7 14,8 19,6 14,8 9 5 12 6 WNW 1020,6 54 0 0,0
02.06.2020 04:00:00 8,8 5,0 6,3 15,5 20,1 14,8 7 4 8 5 WNW 1020,8 59 0 0,0
02.06.2020 03:00:00 9,3 5,1 7,7 16,2 20,6 14,8 6 3 10 5 W 1021,3 75 0 0,0
02.06.2020 02:00:00 10,5 5,2 8,0 17,1 21,1 14,8 6 3 10 5 WNW 1021,6 68 0 0,0
02.06.2020 01:00:00 12,7 5,7 9,7 18,1 21,7 14,8 4 2 15 8 NNW 1021,8 66 0 0,0
02.06.2020 00:00:00 15,0 6,1 13,2 19,2 22,2 14,7 10 5 18 10 N 1021,9 68 0 0,0
01.06.2020 23:00:00 16,0 6,4 14,2 20,4 22,7 14,7 9 5 24 13 N 1021,9 75 0 0,0
01.06.2020 22:00:00 17,5 6,5 16,0 21,8 23,3 14,7 12 7 28 15 N 1021,8 63 3 0,0
01.06.2020 21:00:00 19,3 6,6 17,9 23,6 23,7 14,7 12 7 29 16 N 1021,6 70 60 0,0
01.06.2020 20:00:00 21,1 6,6 21,4 26,1 23,9 14,7 16 9 37 20 NNE 1021,4 68 60 0,0
01.06.2020 19:00:00 22,0 7,1 23,6 28,4 23,9 14,7 21 11 39 21 N 1021,4 66 58 0,0
01.06.2020 18:00:00 23,7 5,6 25,9 30,5 23,7 14,7 13 7 36 19 NNE 1021,4 66 55 0,0
01.06.2020 17:00:00 24,1 5,2 27,8 32,1 23,3 14,7 16 9 34 18 NNE 1021,6 47 60 0,0
01.06.2020 16:00:00 23,3 3,2 27,4 32,9 22,6 14,7 19 10 31 17 N 1022,2 60 60 0,0
01.06.2020 15:00:00 23,4 3,3 29,0 32,9 21,8 14,7 15 8 38 21 NE 1022,7 40 60 0,0
01.06.2020 14:00:00 23,2 3,6 28,6 32,3 20,9 14,6 13 7 27 15 NE 1022,9 66 60 0,0
01.06.2020 13:00:00 22,1 3,6 27,9 31,0 20,0 14,6 14 8 25 13 NNE 1023,4 43 60 0,0
01.06.2020 12:00:00 21,3 4,1 27,6 29,2 19,1 14,6 15 8 31 17 NNE 1023,5 59 60 0,0
01.06.2020 11:00:00 20,0 4,8 25,1 26,9 18,3 14,6 11 6 22 12 N 1023,8 52 60 0,0
01.06.2020 10:00:00 17,9 5,3 23,2 23,8 17,7 14,6 7 4 17 9 NNE 1024,0 75 60 0,0
01.06.2020 09:00:00 15,6 5,9 20,8 20,3 17,4 14,6 9 5 16 9 NNE 1024,2 49 60 0,0
01.06.2020 08:00:00 12,8 6,3 16,7 17,5 17,4 14,6 8 5 14 8 N 1023,9 51 60 0,0
01.06.2020 07:00:00 9,9 6,4 12,4 15,1 17,6 14,6 7 4 13 7 NNW 1023,6 43 60 0,0
01.06.2020 06:00:00 8,4 6,1 8,8 13,4 18,0 14,6 4 2 9 5 NW 1023,5 52 33 0,0
01.06.2020 05:00:00 7,5 6,0 5,2 13,4 18,5 14,6 4 2 14 7 NW 1023,4 41 0 0,0
01.06.2020 04:00:00 7,0 5,7 4,6 14,1 19,0 14,6 4 2 9 5 NW 1023,4 49 0 0,0
01.06.2020 03:00:00 8,2 6,2 5,5 14,8 19,5 14,6 5 3 9 5 NW 1023,3 53 0 0,0
01.06.2020 02:00:00 9,1 6,7 6,2 15,6 20,1 14,6 5 3 10 6 NW 1023,2 52 0 0,0
01.06.2020 01:00:00 9,5 6,4 7,4 16,7 20,6 14,5 5 3 9 5 WNW 1023,1 50 0 0,0
01.06.2020 00:00:00 11,7 6,8 9,3 17,9 21,2 14,5 5 3 19 10 NW 1022,7 55 0 0,0
31.05.2020 23:00:00 14,1 7,0 12,0 19,1 21,7 14,5 8 5 20 11 N 1022,1 61 0 0,0
31.05.2020 22:00:00 15,8 6,6 14,0 20,6 22,3 14,5 10 5 29 15 N 1021,8 63 0 0,0
31.05.2020 21:00:00 17,8 6,5 16,5 22,5 22,7 14,5 12 7 36 19 N 1020,7 54 57 0,0
31.05.2020 20:00:00 19,7 7,5 20,4 25,0 22,9 14,5 18 10 44 24 N 1020,0 50 60 0,0
31.05.2020 19:00:00 21,0 7,4 23,0 27,3 22,8 14,5 21 11 36 19 N 1019,6 62 60 0,0
31.05.2020 18:00:00 22,3 8,3 25,7 29,2 22,5 14,5 16 9 34 18 N 1019,4 49 58 0,0
31.05.2020 17:00:00 22,7 8,3 26,8 30,6 22,0 14,5 18 10 36 20 N 1019,2 47 60 0,0
31.05.2020 16:00:00 22,7 8,0 27,0 31,0 21,4 14,5 21 11 35 19 NNE 1019,2 44 59 0,0
31.05.2020 15:00:00 22,8 7,0 27,7 31,2 20,5 14,5 17 9 38 20 NNE 1019,2 71 60 0,0
31.05.2020 14:00:00 22,4 6,8 27,9 30,5 19,5 14,5 18 10 34 18 N 1019,2 39 59 0,0
31.05.2020 13:00:00 21,4 7,7 27,1 28,8 18,6 14,5 18 10 36 19 N 1019,5 46 60 0,0
31.05.2020 12:00:00 20,1 8,2 25,7 26,8 17,7 14,5 14 8 33 18 N 1019,7 60 60 0,0
31.05.2020 11:00:00 17,4 9,0 22,6 23,1 17,1 14,5 14 7 31 17 NNW 1020,3 59 44 0,0
31.05.2020 10:00:00 14,7 8,6 17,2 18,7 16,9 14,4 12 6 27 15 NNW 1020,6 75 0 0,0
31.05.2020 09:00:00 13,6 8,6 15,7 17,5 16,8 14,4 12 7 26 14 NNW 1020,7 46 0 0,0
31.05.2020 08:00:00 12,0 8,2 13,0 15,6 16,8 14,4 6 3 17 9 NNW 1020,7 56 0 0,0
31.05.2020 07:00:00 11,3 7,7 11,8 14,9 17,0 14,4 8 4 18 10 NNW 1020,7 56 0 0,0
31.05.2020 06:00:00 10,3 7,1 10,4 14,3 17,3 14,4 4 2 11 6 NW 1020,5 56 0 0,0
31.05.2020 05:00:00 9,3 6,8 9,0 14,2 17,6 14,4 6 4 11 6 WNW 1020,5 51 0 0,0
31.05.2020 04:00:00 9,8 6,5 9,3 14,2 18,0 14,4 6 3 18 10 NNW 1021,0 50 0 0,0
31.05.2020 03:00:00 9,4 6,6 8,3 14,5 18,4 14,4 6 4 15 8 NNW 1021,4 50 0 0,0
31.05.2020 02:00:00 10,3 6,5 9,0 15,2 18,8 14,4 7 4 22 12 NNW 1021,9 57 0 0,0
31.05.2020 01:00:00 11,7 6,4 10,9 16,2 19,3 14,4 12 6 24 13 N 1022,2 63 0 0,0
31.05.2020 00:00:00 12,2 5,8 11,1 16,8 19,7 14,4 9 5 18 10 N 1022,3 75 0 0,0
30.05.2020 23:00:00 12,9 5,4 11,8 17,6 20,2 14,4 9 5 24 13 N 1022,3 67 0 0,0
30.05.2020 22:00:00 14,0 4,7 13,0 18,7 20,7 14,4 14 7 27 15 N 1022,1 64 0 0,0
30.05.2020 21:00:00 15,2 6,0 14,4 20,3 21,0 14,4 15 8 29 16 N 1021,6 65 0 0,0
30.05.2020 20:00:00 16,6 6,0 16,6 22,5 21,2 14,4 12 7 27 15 N 1021,6 64 32 0,0
30.05.2020 19:00:00 17,8 4,2 20,3 24,3 21,2 14,4 12 7 26 14 N 1021,4 65 55 0,0
30.05.2020 18:00:00 17,9 2,8 22,2 26,0 21,1 14,4 14 8 30 16 N 1021,5 64 51 0,0
30.05.2020 17:00:00 18,4 3,7 22,3 26,1 20,8 14,3 15 8 33 18 NNE 1021,9 75 33 0,0
30.05.2020 16:00:00 18,1 1,9 21,0 27,6 20,2 14,3 14 8 31 17 N 1022,0 68 42 0,0
30.05.2020 15:00:00 18,7 3,0 25,0 28,3 19,5 14,3 14 8 31 17 N 1022,5 75 45 0,0
30.05.2020 14:00:00 18,5 3,5 24,8 26,7 18,9 14,3 15 8 33 18 NNE 1023,0 57 46 0,0
30.05.2020 13:00:00 18,0 4,2 23,9 25,6 18,1 14,3 15 8 36 19 NNE 1023,5 67 46 0,0
30.05.2020 12:00:00 16,7 4,1 21,4 24,9 17,4 14,3 14 7 35 19 N 1024,0 50 52 0,0
30.05.2020 11:00:00 16,3 3,6 21,0 23,3 16,7 14,3 21 11 43 23 NNE 1024,4 75 59 0,0
30.05.2020 10:00:00 15,1 3,8 18,8 20,7 16,1 14,3 20 11 41 22 NNE 1024,6 63 54 0,0
30.05.2020 09:00:00 12,8 4,7 15,4 17,0 15,9 14,3 14 8 29 16 N 1025,1 45 20 0,0
30.05.2020 08:00:00 11,8 5,0 13,5 15,3 15,9 14,3 12 7 24 13 NNE 1025,3 62 58 0,0
30.05.2020 07:00:00 9,2 4,4 12,3 13,4 16,1 14,3 4 2 11 6 NNW 1025,6 74 60 0,0
30.05.2020 06:00:00 6,3 2,7 7,1 11,6 16,5 14,2 7 4 10 5 W 1025,7 55 33 0,0
30.05.2020 05:00:00 7,2 3,4 4,3 11,7 17,0 14,2 5 3 14 7 N 1025,9 61 0 0,0
30.05.2020 04:00:00 8,5 3,0 6,4 12,4 17,4 14,2 7 4 14 7 NE 1026,0 62 0 0,0
30.05.2020 03:00:00 8,9 3,1 6,7 13,1 17,9 14,2 7 4 13 7 NNE 1026,0 50 0 0,0
30.05.2020 02:00:00 9,6 3,1 7,5 13,8 18,5 14,2 8 4 16 9 N 1026,0 61 0 0,0
30.05.2020 01:00:00 10,4 3,1 8,3 14,7 19,0 14,2 8 4 15 8 N 1025,9 63 0 0,0
30.05.2020 00:00:00 11,7 3,7 9,9 15,7 19,5 14,2 9 5 19 10 N 1025,8 73 0 0,0
29.05.2020 23:00:00 13,0 4,7 11,0 16,8 20,0 14,2 11 6 19 10 N 1025,6 64 0 0,0
29.05.2020 22:00:00 13,9 5,7 11,9 18,2 20,5 14,2 10 5 19 10 N 1025,8 59 3 0,0
29.05.2020 21:00:00 15,8 3,0 14,2 19,9 20,9 14,2 10 6 28 15 N 1025,5 64 60 0,0
29.05.2020 20:00:00 17,6 3,3 18,2 22,4 21,0 14,2 15 8 33 18 N 1025,5 59 54 0,0

tt = temperature
td = dewpoint
tt 5cm = temperature 5cm
tt -5cm = temperature -5cm
tt -20cm = temperature -20cm
tt -100cm = temperature -100cm
ff = wind speed
fx = gusts
dd = wind direction
ppp = reduced air pressure
vv = visibility
sd = sunshine duration
rr = precipitation

Next stations